SL-16 DEB, 22352

Orbit data source: Space-Track

SL-16 DEB, 22352 is space debris in LEO originally from a launch on Fri, 25 Dec 1992 UTC launched from the Tyuratam Missile And Space Complex (TTMTR). Debris objects in space refer to the collection of defunct objects orbiting the Earth. Examples of debris include non-operational satellites, rocket bodies, and fragments generated from explosions, collisions, or faulty payload assembly.

Loading next visibility...
Identifier
22352, 1992-093AR
Orbit
LEO
Country
Flag of CISCIS
Related business
Manufacturer
Unknown
Mission
Spacecraft
Bus & Motor
Unknown
Mass
Unknown
Launch date (UTC)
1992-12-25 (33 years ago)
Launch vehicle
Unknown
Launch site
Tyuratam Missile And Space Complex (TTMTR)
Object type
Payload
Rocket body
Debris
Shape & HBR
Unknown shape, 0.3 m
Radar Cross Section
Medium (>0.1 m² and <1 m²)

Expand to show TLE details & history
Last TLE update: 6 hours ago

TLE from 6 hours ago
0 SL-16 DEB
1 22352U 92093AR  25304.54308463  .00000049  00000-0  62206-4 0  9997
2 22352  70.8927 347.5012 0073865 109.8198  39.3805 14.00698958676823
Epoch: 2025-10-31T13:02Z
TLE epoch observation values (Epoch: 2025-10-31T13:02:02.512Z)
Latitude
28.48859°
Longitude
-78.87363°
Altitude
853.007 km
Speed
7.45 km/s
True Right ascension
10h 26m 53s
True Declination
28° 20' 48"
Sunlit
Object was in daylight at epoch
Visualization orbit readout
Latitude
Unknown
Longitude
Unknown
Altitude
Unknown
Speed
Unknown
Apparent Right ascension
Unknown
Apparent Declination
Unknown
Sunlit
N/A
Visualization observer readout
Local Sidereal Time
14:55:04
Azimuth
Unknown
Elevation
Unknown
Doppler factor
Unknown
Orbital elements
Apogee altitude
943.006 km
Perigee altitude
835.644 km
Semi-major axis
7,267.462 km
Eccentricity
0.00739
Inclination
70.8927°
RAAN
347.5012°
Arg. of periapsis
109.8198°
True anomaly
39.92138°
Mean anomaly
39.3805°
Eccentric anomaly
39.65056°
Mean motion
3.50323 °/min
Orbital period
102.76 mins
BSTAR
0.000062206
Loading maneuver chart data...
Computing Atmospheric mass density...
Loading historical data...
Loading historical data...
Loading historical data...
Loading historical data...
Loading historical data...
Loading historical data...
Loading historical data...

Documentation

Showing up to 5 results
|